Weather History for KMOB - December, 2011

Change the Weather History Date:

Saturday, December 3, 2011

  Actual Average Record
Temperature  
Mean Temperature 59 °F 55 °F  
Max Temperature 72 °F 65 °F 79 °F (1933)
Min Temperature 45 °F 44 °F 22 °F (1929)
Degree Days  
Heating Degree Days 6 11  
Month to date heating degree days 39 32  
Since 1 July heating degree days 329 290  
Cooling Degree Days 0 1  
Month to date cooling degree days 0 3  
Year to date cooling degree days 2844 2506  
Growing Degree Days 8 (Base 50)    
Moisture  
Dew Point 48 °F    
Average Humidity 70    
Maximum Humidity 84    
Minimum Humidity 56    
Precipitation  
Precipitation 0.00 in 0.16 in 2.36 in (1955)
Month to date precipitation 0.00 0.48  
Year to date precipitation 48.54 61.57  
Snow  
Snow 0.00 in 0.00 in 0.00 in (2002)
Month to date snowfall 0.0 0.0  
Since 1 July snowfall 0.0 0.0  
Snow Depth 0.00 in    
Sea Level Pressure  
Sea Level Pressure 30.32 in    
Wind  
Wind Speed 10 mph (East)    
Max Wind Speed 21 mph    
Max Gust Speed 26 mph    
Visibility 10 miles    
Events      
T = Trace of Precipitation, MM = Missing Value Source: NWS Daily Summary

Daily Weather History Graph

Daily Weather History Graph

Search for Another Location

Airport or City:

Trip Planner

Search our weather history database for the weather conditions in past years. The results will help you decide how hot, cold, wet, or windy it might be!

Date:

Astronomy

Dec. 03, 2011 Rise Set
Actual Time 6:34 AM CST 4:51 PM CST
Civil Twilight 6:07 AM CST 5:17 PM CST
Nautical Twilight 5:38 AM CST 5:47 PM CST
Astronomical Twilight 5:08 AM CST 6:16 PM CST
Moon 12:35 PM CST (12/3) 12:24 AM CST (12/3)
Length of Visible Light 11h 09m
Length of Day
10h 17m
Waxing Gibbous, 63% of the Moon is Illuminated
Dec 3
Waxing Gibbous
Dec 10
Full
Dec 17
Last Quarter
Dec 24
New
Jan 1
First Quarter

Hourly Weather History & Observations

Time (CST) Temp. Windchill Dew Point Humidity Pressure Visibility Wind Dir Wind Speed Gust Speed Precip Events Conditions
12:56 AM 46.9 °F - 41.0 °F 80% 30.35 in 10.0 mi ENE 4.6 mph - N/A   Clear
1:56 AM 46.0 °F 42.5 °F 39.9 °F 79% 30.34 in 10.0 mi ENE 6.9 mph - N/A   Clear
2:56 AM 46.0 °F 44.8 °F 37.9 °F 73% 30.34 in 10.0 mi ENE 3.5 mph - N/A   Clear
3:56 AM 46.9 °F - 37.9 °F 71% 30.33 in 10.0 mi ENE 6.9 mph - N/A   Clear
4:56 AM 46.0 °F - 36.0 °F 68% 30.35 in 10.0 mi Calm Calm - N/A   Clear
5:56 AM 45.0 °F 42.6 °F 36.0 °F 71% 30.35 in 10.0 mi ENE 4.6 mph - N/A   Clear
6:56 AM 46.0 °F 43.1 °F 36.0 °F 68% 30.35 in 10.0 mi ENE 5.8 mph - N/A   Scattered Clouds
7:56 AM 52.0 °F - 39.0 °F 61% 30.36 in 10.0 mi ENE 6.9 mph - N/A   Scattered Clouds
8:56 AM 57.0 °F - 43.0 °F 59% 30.38 in 10.0 mi ENE 9.2 mph - N/A   Scattered Clouds
9:56 AM 64.4 °F - 48.2 °F 56% 30.38 in 10.0 mi East 11.5 mph - N/A   Scattered Clouds
10:56 AM 66.9 °F - 53.1 °F 61% 30.35 in 10.0 mi East 13.8 mph - N/A   Scattered Clouds
11:56 AM 69.1 °F - 54.0 °F 58% 30.33 in 10.0 mi ESE 17.3 mph - N/A   Mostly Cloudy
12:56 PM 69.1 °F - 55.0 °F 61% 30.31 in 10.0 mi ESE 15.0 mph - N/A   Mostly Cloudy
1:56 PM 71.1 °F - 55.0 °F 57% 30.29 in 10.0 mi ESE 19.6 mph 24.2 mph N/A   Mostly Cloudy
2:56 PM 70.0 °F - 55.9 °F 61% 30.28 in 10.0 mi ESE 15.0 mph 24.2 mph N/A   Mostly Cloudy
3:56 PM 68.0 °F - 55.0 °F 63% 30.29 in 10.0 mi ESE 13.8 mph - N/A   Mostly Cloudy
4:56 PM 64.0 °F - 54.0 °F 70% 30.29 in 10.0 mi ESE 10.4 mph - N/A   Scattered Clouds
5:56 PM 63.0 °F - 55.0 °F 75% 30.30 in 10.0 mi ESE 12.7 mph - N/A   Partly Cloudy
6:56 PM 62.1 °F - 55.0 °F 78% 30.30 in 10.0 mi ESE 15.0 mph - N/A   Partly Cloudy
7:56 PM 62.1 °F - 55.0 °F 78% 30.29 in 10.0 mi ESE 9.2 mph - N/A   Clear
8:56 PM 63.0 °F - 55.0 °F 75% 30.29 in 10.0 mi ESE 11.5 mph - N/A   Clear
9:56 PM 62.1 °F - 55.0 °F 78% 30.29 in 10.0 mi ESE 10.4 mph - N/A   Partly Cloudy
10:56 PM 61.0 °F - 55.0 °F 81% 30.28 in 10.0 mi East 10.4 mph 26.5 mph N/A   Clear
11:56 PM 60.8 °F - 55.4 °F 82% 30.26 in 10.0 mi ESE 10.4 mph - N/A   Clear